| time (UTC) | temp C | wind direction | speed KPH | gust KPH | rain 1hr cm | rain 24hr cm | rain mn cm | humidity % | barometer mb |
| 20260508020526 | 8 | 0 | 0.0 | 0.0 | 0.00 | 0.28 | 0.23 | 62 | 1007.2 |
| 20260508020038 | 8 | 0 | 0.0 | 0.0 | 0.00 | 0.28 | 0.23 | 59 | 1007.1 |
| 20260508015524 | 8 | 0 | 0.0 | 0.0 | 0.00 | 0.36 | 0.23 | 57 | 1007.1 |
| 20260508015025 | 8 | 0 | 0.0 | 1.6 | 0.00 | 0.36 | 0.23 | 59 | 1007.0 |
| 20260508014538 | 8 | 0 | 0.0 | 3.2 | 0.00 | 0.36 | 0.23 | 56 | 1006.9 |
| 20260508014024 | 8 | 0 | 0.0 | 3.2 | 0.00 | 0.36 | 0.23 | 59 | 1007.0 |
| 20260508013524 | 8 | 0 | 0.0 | 4.8 | 0.00 | 0.36 | 0.23 | 52 | 1007.0 |
| 20260508013036 | 8 | 0 | 0.0 | 9.7 | 0.00 | 0.36 | 0.23 | 54 | 1007.0 |
| 20260508012525 | 9 | 333 | 0.0 | 9.7 | 0.00 | 0.36 | 0.23 | 53 | 1006.9 |
| 20260508012025 | 9 | 0 | 0.0 | 6.4 | 0.00 | 0.36 | 0.23 | 53 | 1006.9 |
| 20260508011548 | 9 | 0 | 0.0 | 6.4 | 0.00 | 0.36 | 0.23 | 51 | 1006.8 |
| 20260508011024 | 9 | 0 | 0.0 | 11.3 | 0.00 | 0.36 | 0.23 | 56 | 1006.7 |
| 20260508010526 | 9 | 0 | 0.0 | 11.3 | 0.00 | 0.36 | 0.23 | 58 | 1006.6 |
| 20260508010053 | 9 | 0 | 0.0 | 6.4 | 0.00 | 0.36 | 0.23 | 55 | 1006.5 |
| 20260508005527 | 9 | 0 | 0.0 | 6.4 | 0.00 | 0.36 | 0.23 | 57 | 1006.3 |
| 20260508005025 | 9 | 0 | 0.0 | 4.8 | 0.00 | 0.36 | 0.23 | 57 | 1006.3 |
| 20260508004535 | 10 | 296 | 0.0 | 6.4 | 0.00 | 0.36 | 0.23 | 58 | 1006.2 |
| 20260508004025 | 10 | 0 | 0.0 | 6.4 | 0.00 | 0.36 | 0.23 | 57 | 1006.2 |
| 20260508003524 | 10 | 0 | 0.0 | 6.4 | 0.00 | 0.36 | 0.23 | 54 | 1006.1 |
| 20260508003036 | 10 | 0 | 0.0 | 6.4 | 0.00 | 0.36 | 0.23 | 48 | 1006.0 |
| 20260508002528 | 10 | 0 | 0.0 | 1.6 | 0.00 | 0.36 | 0.23 | 51 | 1005.9 |
| 20260508002025 | 10 | 0 | 0.0 | 0.0 | 0.00 | 0.36 | 0.23 | 53 | 1005.9 |
| 20260508001536 | 11 | 0 | 0.0 | 0.0 | 0.00 | 0.36 | 0.23 | 56 | 1005.8 |
| 20260508001026 | 11 | 0 | 0.0 | 0.0 | 0.00 | 0.36 | 0.23 | 54 | 1005.7 |
| 20260508000525 | 11 | 0 | 0.0 | 8.0 | 0.00 | 0.36 | 0.23 | 48 | 1005.7 |
| 20260508000046 | 11 | 0 | 0.0 | 9.7 | 0.00 | 0.36 | 0.23 | 47 | 1005.6 |
| 20260507235528 | 12 | 0 | 0.0 | 9.7 | 0.00 | 0.36 | 0.23 | 45 | 1005.6 |
| 20260507235026 | 12 | 0 | 1.6 | 9.7 | 0.00 | 0.36 | 0.23 | 42 | 1005.5 |
| 20260507234538 | 12 | 0 | 0.0 | 6.4 | 0.00 | 0.36 | 0.23 | 44 | 1005.4 |
| 20260507234024 | 12 | 291 | 0.0 | 4.8 | 0.00 | 0.36 | 0.23 | 48 | 1005.3 |
| 20260507233525 | 12 | 0 | 0.0 | 3.2 | 0.00 | 0.36 | 0.23 | 45 | 1005.3 |
| 20260507233040 | 12 | 0 | 0.0 | 8.0 | 0.00 | 0.36 | 0.23 | 41 | 1005.3 |
| 20260507232527 | 13 | 0 | 1.6 | 16.1 | 0.00 | 0.36 | 0.23 | 42 | 1005.1 |
| 20260507232027 | 13 | 292 | 0.0 | 16.1 | 0.00 | 0.36 | 0.23 | 42 | 1005.0 |
| 20260507231535 | 13 | 292 | 3.2 | 16.1 | 0.00 | 0.36 | 0.23 | 38 | 1004.9 |
| 20260507231024 | 13 | 313 | 1.6 | 14.5 | 0.00 | 0.36 | 0.23 | 42 | 1004.8 |
| 20260507230525 | 13 | 313 | 0.0 | 14.5 | 0.00 | 0.36 | 0.23 | 41 | 1004.8 |
| 20260507230056 | 14 | 0 | 3.2 | 14.5 | 0.00 | 0.36 | 0.23 | 41 | 1004.8 |
| 20260507225526 | 14 | 0 | 0.0 | 9.7 | 0.00 | 0.36 | 0.23 | 36 | 1004.7 |
| 20260507225025 | 14 | 0 | 1.6 | 9.7 | 0.00 | 0.36 | 0.23 | 36 | 1004.7 |
| 20260507224542 | 14 | 300 | 0.0 | 8.0 | 0.00 | 0.36 | 0.23 | 39 | 1004.6 |
| 20260507224028 | 14 | 0 | 0.0 | 8.0 | 0.00 | 0.36 | 0.23 | 34 | 1004.5 |
| 20260507223532 | 14 | 0 | 0.0 | 9.7 | 0.00 | 0.36 | 0.23 | 37 | 1004.5 |
| 20260507223119 | 15 | 0 | 0.0 | 14.5 | 0.00 | 0.36 | 0.23 | 35 | 1004.4 |
| 20260507222523 | 15 | 291 | 3.2 | 14.5 | 0.00 | 0.36 | 0.23 | 33 | 1004.3 |
| 20260507222024 | 15 | 0 | 3.2 | 14.5 | 0.00 | 0.36 | 0.23 | 33 | 1004.3 |
| 20260507221534 | 15 | 0 | 0.0 | 14.5 | 0.00 | 0.36 | 0.23 | 36 | 1004.2 |
| 20260507221024 | 15 | 284 | 0.0 | 12.9 | 0.00 | 0.36 | 0.23 | 34 | 1004.2 |
| 20260507220524 | 15 | 253 | 1.6 | 12.9 | 0.00 | 0.36 | 0.23 | 34 | 1004.2 |
| 20260507220043 | 15 | 304 | 4.8 | 11.3 | 0.00 | 0.36 | 0.23 | 35 | 1004.2 |
| 20260507215527 | 15 | 0 | 0.0 | 12.9 | 0.00 | 0.51 | 0.23 | 34 | 1004.3 |
| 20260507215024 | 15 | 0 | 1.6 | 12.9 | 0.00 | 0.51 | 0.23 | 35 | 1004.1 |
| 20260507214548 | 15 | 315 | 3.2 | 17.7 | 0.00 | 0.51 | 0.23 | 36 | 1004.2 |
| 20260507214025 | 15 | 0 | 4.8 | 17.7 | 0.00 | 0.51 | 0.23 | 37 | 1004.2 |
| 20260507213525 | 16 | 0 | 0.0 | 9.7 | 0.00 | 0.51 | 0.23 | 34 | 1004.2 |
| 20260507213039 | 16 | 0 | 0.0 | 9.7 | 0.00 | 0.51 | 0.23 | 32 | 1004.1 |
| 20260507212524 | 16 | 0 | 1.6 | 12.9 | 0.00 | 0.51 | 0.23 | 32 | 1004.0 |
| 20260507212024 | 16 | 333 | 0.0 | 14.5 | 0.00 | 0.51 | 0.23 | 32 | 1004.2 |
| 20260507211538 | 16 | 310 | 1.6 | 14.5 | 0.00 | 0.51 | 0.23 | 31 | 1004.1 |
| 20260507211024 | 17 | 259 | 3.2 | 11.3 | 0.00 | 0.51 | 0.23 | 33 | 1004.0 |
| 20260507210524 | 17 | 0 | 1.6 | 11.3 | 0.00 | 0.51 | 0.23 | 31 | 1004.0 |
| 20260507210042 | 17 | 305 | 3.2 | 11.3 | 0.00 | 0.51 | 0.23 | 31 | 1004.1 |
| 20260507205531 | 17 | 302 | 1.6 | 16.1 | 0.00 | 0.69 | 0.23 | 33 | 1003.9 |
| 20260507205028 | 16 | 297 | 1.6 | 16.1 | 0.00 | 0.69 | 0.23 | 33 | 1003.9 |
| 20260507204541 | 16 | 288 | 3.2 | 14.5 | 0.00 | 0.69 | 0.23 | 33 | 1003.8 |
| 20260507204024 | 16 | 309 | 1.6 | 8.0 | 0.00 | 0.69 | 0.23 | 37 | 1003.8 |
| 20260507203528 | 16 | 274 | 0.0 | 8.0 | 0.00 | 0.69 | 0.23 | 35 | 1003.8 |
| 20260507203040 | 16 | 297 | 3.2 | 12.9 | 0.00 | 0.69 | 0.23 | 36 | 1003.8 |
| 20260507202526 | 17 | 0 | 1.6 | 14.5 | 0.00 | 0.69 | 0.23 | 34 | 1003.7 |
| 20260507202024 | 17 | 292 | 4.8 | 27.4 | 0.00 | 0.69 | 0.23 | 35 | 1003.8 |
| 20260507201542 | 17 | 260 | 4.8 | 27.4 | 0.00 | 0.69 | 0.23 | 34 | 1003.8 |
| 20260507201034 | 17 | 304 | 3.2 | 14.5 | 0.00 | 0.69 | 0.23 | 34 | 1003.7 |
| 20260507200525 | 17 | 302 | 3.2 | 19.3 | 0.00 | 0.69 | 0.23 | 34 | 1003.8 |
| 20260507200052 | 17 | 269 | 1.6 | 19.3 | 0.00 | 0.69 | 0.23 | 33 | 1003.7 |
| 20260507195524 | 17 | 0 | 1.6 | 19.3 | 0.00 | 1.12 | 0.23 | 29 | 1003.6 |
| 20260507195024 | 17 | 185 | 3.2 | 16.1 | 0.00 | 1.12 | 0.23 | 29 | 1003.7 |
| 20260507194535 | 17 | 335 | 4.8 | 24.1 | 0.00 | 1.12 | 0.23 | 30 | 1003.7 |
| 20260507194024 | 17 | 315 | 4.8 | 24.1 | 0.00 | 1.12 | 0.23 | 28 | 1003.8 |
| 20260507193524 | 17 | 286 | 3.2 | 14.5 | 0.00 | 1.12 | 0.23 | 30 | 1003.8 |
| 20260507193044 | 17 | 288 | 6.4 | 14.5 | 0.00 | 1.12 | 0.23 | 31 | 1003.8 |
| 20260507192525 | 17 | 0 | 4.8 | 17.7 | 0.00 | 1.12 | 0.23 | 33 | 1003.9 |
| 20260507192024 | 17 | 303 | 3.2 | 17.7 | 0.00 | 1.12 | 0.23 | 38 | 1003.9 |
| 20260507191542 | 17 | 313 | 6.4 | 14.5 | 0.00 | 1.12 | 0.23 | 40 | 1004.0 |
| 20260507191023 | 17 | 299 | 3.2 | 17.7 | 0.00 | 1.12 | 0.23 | 42 | 1003.9 |
| 20260507190525 | 17 | 0 | 6.4 | 17.7 | 0.00 | 1.12 | 0.23 | 43 | 1003.9 |
| 20260507190041 | 17 | 243 | 4.8 | 16.1 | 0.00 | 1.12 | 0.23 | 46 | 1004.0 |
| 20260507185525 | 16 | 255 | 4.8 | 16.1 | 0.00 | 1.19 | 0.23 | 46 | 1004.0 |
| 20260507185024 | 15 | 0 | 3.2 | 17.7 | 0.00 | 1.19 | 0.23 | 49 | 1004.0 |
| 20260507184538 | 15 | 0 | 1.6 | 19.3 | 0.00 | 1.19 | 0.23 | 52 | 1004.0 |
| 20260507184024 | 15 | 294 | 3.2 | 19.3 | 0.00 | 1.19 | 0.23 | 49 | 1004.0 |
| 20260507183524 | 15 | 0 | 0.0 | 14.5 | 0.00 | 1.19 | 0.23 | 54 | 1004.0 |
| 20260507183041 | 15 | 314 | 3.2 | 14.5 | 0.00 | 1.19 | 0.23 | 49 | 1004.1 |
| 20260507182524 | 16 | 0 | 0.0 | 14.5 | 0.00 | 1.19 | 0.23 | 50 | 1004.0 |
| 20260507182025 | 16 | 0 | 3.2 | 16.1 | 0.00 | 1.19 | 0.23 | 52 | 1004.0 |
| 20260507181537 | 16 | 299 | 6.4 | 16.1 | 0.00 | 1.19 | 0.23 | 48 | 1004.0 |
| 20260507181024 | 16 | 268 | 4.8 | 16.1 | 0.00 | 1.19 | 0.23 | 48 | 1003.9 |
| 20260507180530 | 16 | 0 | 1.6 | 12.9 | 0.00 | 1.19 | 0.23 | 48 | 1004.0 |
| 20260507180046 | 16 | 265 | 0.0 | 11.3 | 0.00 | 1.19 | 0.23 | 45 | 1004.0 |
| 20260507175526 | 17 | 0 | 1.6 | 14.5 | 0.00 | 1.19 | 0.23 | 47 | 1004.2 |
| 20260507175027 | 17 | 270 | 1.6 | 14.5 | 0.00 | 1.19 | 0.23 | 44 | 1004.2 |
| 20260507174541 | 17 | 233 | 1.6 | 12.9 | 0.00 | 1.19 | 0.23 | 45 | 1004.0 |
| 20260507174025 | 17 | 247 | 3.2 | 12.9 | 0.00 | 1.19 | 0.23 | 46 | 1004.2 |
| 20260507173525 | 16 | 232 | 0.0 | 16.1 | 0.00 | 1.19 | 0.23 | 46 | 1004.2 |
| 20260507173039 | 15 | 259 | 0.0 | 16.1 | 0.00 | 1.19 | 0.23 | 48 | 1004.5 |
| 20260507172527 | 15 | 278 | 0.0 | 9.7 | 0.00 | 1.19 | 0.23 | 51 | 1004.4 |
| 20260507172026 | 15 | 0 | 0.0 | 12.9 | 0.00 | 1.19 | 0.23 | 51 | 1004.4 |
| 20260507171540 | 15 | 0 | 1.6 | 12.9 | 0.00 | 1.19 | 0.23 | 47 | 1004.4 |
| 20260507171026 | 16 | 303 | 3.2 | 11.3 | 0.00 | 1.19 | 0.23 | 46 | 1004.5 |
| 20260507170526 | 16 | 0 | 1.6 | 11.3 | 0.00 | 1.19 | 0.23 | 48 | 1004.4 |
| 20260507170043 | 16 | 228 | 0.0 | 8.0 | 0.00 | 1.19 | 0.23 | 50 | 1004.5 |
| 20260507165527 | 16 | 0 | 0.0 | 4.8 | 0.00 | 1.19 | 0.23 | 47 | 1004.5 |
| 20260507165027 | 16 | 303 | 0.0 | 6.4 | 0.00 | 1.19 | 0.23 | 46 | 1004.5 |
| 20260507164536 | 16 | 0 | 0.0 | 6.4 | 0.00 | 1.19 | 0.23 | 49 | 1004.5 |
| 20260507164027 | 16 | 267 | 0.0 | 11.3 | 0.00 | 1.19 | 0.23 | 51 | 1004.6 |
| 20260507163529 | 16 | 252 | 0.0 | 14.5 | 0.00 | 1.19 | 0.23 | 45 | 1004.7 |
| 20260507163043 | 16 | 0 | 3.2 | 14.5 | 0.00 | 1.19 | 0.23 | 45 | 1004.8 |
| 20260507162525 | 16 | 0 | 0.0 | 9.7 | 0.00 | 1.19 | 0.23 | 49 | 1004.7 |
| 20260507162028 | 15 | 270 | 0.0 | 9.7 | 0.00 | 1.19 | 0.23 | 46 | 1004.8 |
| 20260507161550 | 15 | 0 | 0.0 | 4.8 | 0.00 | 1.19 | 0.23 | 50 | 1005.0 |
| 20260507161025 | 15 | 0 | 0.0 | 4.8 | 0.00 | 1.19 | 0.23 | 51 | 1005.0 |
| 20260507160526 | 15 | 0 | 0.0 | 4.8 | 0.00 | 1.19 | 0.23 | 49 | 1005.1 |
| 20260507160041 | 15 | 0 | 0.0 | 6.4 | 0.00 | 1.19 | 0.23 | 53 | 1005.2 |
| 20260507155526 | 15 | 0 | 0.0 | 11.3 | 0.00 | 1.19 | 0.23 | 51 | 1005.3 |
| 20260507155029 | 16 | 243 | 1.6 | 11.3 | 0.00 | 1.19 | 0.23 | 47 | 1005.4 |
| 20260507154542 | 16 | 329 | 1.6 | 16.1 | 0.00 | 1.19 | 0.23 | 51 | 1005.3 |
| 20260507154026 | 16 | 0 | 3.2 | 16.1 | 0.00 | 1.19 | 0.23 | 52 | 1005.4 |
| 20260507153526 | 16 | 0 | 0.0 | 9.7 | 0.00 | 1.19 | 0.23 | 47 | 1005.4 |
| 20260507153042 | 16 | 0 | 0.0 | 9.7 | 0.00 | 1.19 | 0.23 | 54 | 1005.4 |
| 20260507152526 | 15 | 203 | 0.0 | 6.4 | 0.00 | 1.19 | 0.23 | 50 | 1005.4 |
| 20260507152026 | 15 | 300 | 1.6 | 9.7 | 0.00 | 1.19 | 0.23 | 57 | 1005.5 |
| 20260507151543 | 15 | 324 | 1.6 | 9.7 | 0.00 | 1.19 | 0.23 | 56 | 1005.5 |
| 20260507151027 | 15 | 357 | 1.6 | 8.0 | 0.00 | 1.19 | 0.23 | 59 | 1005.5 |
| 20260507150530 | 14 | 0 | 0.0 | 6.4 | 0.00 | 1.19 | 0.23 | 59 | 1005.5 |
| 20260507150049 | 14 | 18 | 0.0 | 11.3 | 0.00 | 1.19 | 0.23 | 58 | 1005.5 |
| 20260507145528 | 14 | 0 | 1.6 | 11.3 | 0.00 | 1.19 | 0.23 | 60 | 1005.8 |
| 20260507145026 | 14 | 303 | 1.6 | 9.7 | 0.00 | 1.19 | 0.23 | 58 | 1005.7 |
| 20260507144540 | 14 | 0 | 0.0 | 8.0 | 0.00 | 1.19 | 0.23 | 59 | 1005.7 |
| 20260507144026 | 13 | 325 | 0.0 | 8.0 | 0.00 | 1.19 | 0.23 | 61 | 1005.7 |
| 20260507143528 | 13 | 324 | 0.0 | 3.2 | 0.00 | 1.19 | 0.23 | 65 | 1005.7 |
| 20260507143038 | 13 | 0 | 0.0 | 8.0 | 0.00 | 1.19 | 0.23 | 62 | 1005.8 |
| 20260507142527 | 13 | 0 | 1.6 | 9.7 | 0.00 | 1.19 | 0.23 | 63 | 1005.9 |
| 20260507142025 | 13 | 0 | 0.0 | 9.7 | 0.00 | 1.19 | 0.23 | 63 | 1006.0 |
| 20260507141535 | 13 | 0 | 1.6 | 11.3 | 0.00 | 1.19 | 0.23 | 63 | 1006.0 |
| 20260507141025 | 13 | 0 | 0.0 | 11.3 | 0.00 | 1.19 | 0.23 | 63 | 1006.0 |
| 20260507140528 | 13 | 0 | 3.2 | 11.3 | 0.00 | 1.19 | 0.23 | 65 | 1006.0 |
| 20260507140037 | 12 | 0 | 3.2 | 14.5 | 0.00 | 1.19 | 0.23 | 63 | 1006.1 |
| 20260507135530 | 12 | 313 | 0.0 | 14.5 | 0.00 | 1.19 | 0.23 | 65 | 1006.1 |
| 20260507135026 | 12 | 331 | 4.8 | 12.9 | 0.00 | 1.19 | 0.23 | 65 | 1006.1 |
| 20260507134542 | 12 | 0 | 1.6 | 11.3 | 0.00 | 1.19 | 0.23 | 65 | 1006.2 |
| 20260507134028 | 12 | 0 | 1.6 | 8.0 | 0.00 | 1.19 | 0.23 | 67 | 1006.2 |
| 20260507133530 | 12 | 301 | 1.6 | 8.0 | 0.00 | 1.19 | 0.23 | 67 | 1006.2 |
| 20260507133040 | 12 | 0 | 0.0 | 8.0 | 0.00 | 1.19 | 0.23 | 70 | 1006.1 |
| 20260507132526 | 12 | 0 | 0.0 | 11.3 | 0.00 | 1.19 | 0.23 | 71 | 1006.2 |
| 20260507132025 | 12 | 0 | 0.0 | 11.3 | 0.00 | 1.19 | 0.23 | 71 | 1006.2 |
| 20260507131540 | 11 | 0 | 0.0 | 8.0 | 0.00 | 1.19 | 0.23 | 71 | 1006.2 |
| 20260507131026 | 11 | 267 | 1.6 | 8.0 | 0.00 | 1.19 | 0.23 | 72 | 1006.2 |
| 20260507130527 | 11 | 0 | 0.0 | 8.0 | 0.00 | 1.19 | 0.23 | 73 | 1006.2 |
| 20260507130056 | 11 | 0 | 0.0 | 8.0 | 0.00 | 1.19 | 0.23 | 74 | 1006.2 |
| 20260507125528 | 11 | 0 | 0.0 | 8.0 | 0.00 | 1.19 | 0.23 | 76 | 1006.3 |
| 20260507125023 | 11 | 0 | 0.0 | 8.0 | 0.00 | 1.19 | 0.23 | 76 | 1006.2 |
| 20260507124540 | 10 | 0 | 0.0 | 6.4 | 0.00 | 1.19 | 0.23 | 79 | 1006.4 |
| 20260507124026 | 10 | 0 | 0.0 | 9.7 | 0.00 | 1.19 | 0.23 | 81 | 1006.4 |
| 20260507123523 | 10 | 0 | 0.0 | 9.7 | 0.00 | 1.19 | 0.23 | 82 | 1006.5 |
| 20260507123057 | 10 | 0 | 0.0 | 1.6 | 0.00 | 1.19 | 0.23 | 85 | 1006.5 |
| 20260507122526 | 9 | 0 | 0.0 | 1.6 | 0.00 | 1.19 | 0.23 | 83 | 1006.3 |
| 20260507122026 | 9 | 0 | 0.0 | 4.8 | 0.00 | 1.19 | 0.23 | 86 | 1006.4 |
| 20260507121550 | 8 | 0 | 0.0 | 8.0 | 0.00 | 1.19 | 0.23 | 89 | 1006.5 |
| 20260507121026 | 8 | 0 | 1.6 | 8.0 | 0.00 | 1.19 | 0.23 | 89 | 1006.4 |
| 20260507120533 | 8 | 249 | 0.0 | 4.8 | 0.00 | 1.19 | 0.23 | 92 | 1006.5 |
| 20260507120041 | 7 | 0 | 0.0 | 4.8 | 0.00 | 1.19 | 0.23 | 92 | 1006.6 |
| 20260507115526 | 7 | 0 | 1.6 | 4.8 | 0.00 | 1.19 | 0.23 | 94 | 1006.6 |
| 20260507115029 | 7 | 0 | 0.0 | 3.2 | 0.00 | 1.19 | 0.23 | 94 | 1006.5 |
| 20260507114539 | 7 | 0 | 0.0 | 3.2 | 0.00 | 1.19 | 0.23 | 94 | 1006.5 |
| 20260507114025 | 7 | 0 | 0.0 | 0.0 | 0.00 | 1.19 | 0.23 | 94 | 1006.6 |
| 20260507113526 | 7 | 0 | 0.0 | 0.0 | 0.00 | 1.19 | 0.23 | 94 | 1006.5 |
| 20260507113040 | 7 | 0 | 0.0 | 0.0 | 0.00 | 1.19 | 0.23 | 95 | 1006.6 |
| 20260507112527 | 7 | 0 | 0.0 | 0.0 | 0.00 | 1.19 | 0.23 | 95 | 1006.8 |
| 20260507112026 | 7 | 0 | 0.0 | 0.0 | 0.00 | 1.19 | 0.23 | 95 | 1006.8 |
| 20260507111538 | 7 | 0 | 0.0 | 0.0 | 0.00 | 1.19 | 0.23 | 95 | 1006.9 |
| 20260507111026 | 7 | 0 | 0.0 | 0.0 | 0.00 | 1.19 | 0.23 | 95 | 1006.9 |
| 20260507110526 | 7 | 0 | 0.0 | 0.0 | 0.00 | 1.19 | 0.23 | 95 | 1006.6 |
| 20260507110036 | 7 | 0 | 0.0 | 0.0 | 0.00 | 1.19 | 0.23 | 95 | 1006.7 |
| 20260507105525 | 7 | 0 | 0.0 | 0.0 | 0.00 | 1.19 | 0.23 | 95 | 1006.9 |
| 20260507105026 | 7 | 0 | 0.0 | 0.0 | 0.00 | 1.19 | 0.23 | 95 | 1007.1 |
| 20260507104536 | 7 | 0 | 0.0 | 0.0 | 0.00 | 1.19 | 0.23 | 95 | 1007.0 |
| 20260507104028 | 6 | 0 | 0.0 | 0.0 | 0.00 | 1.19 | 0.23 | 95 | 1006.9 |
| 20260507103526 | 6 | 0 | 0.0 | 0.0 | 0.00 | 1.19 | 0.23 | 95 | 1006.8 |
| 20260507103040 | 6 | 0 | 0.0 | 0.0 | 0.00 | 1.19 | 0.23 | 95 | 1007.2 |
| 20260507102528 | 6 | 0 | 0.0 | 0.0 | 0.00 | 1.19 | 0.23 | 95 | 1006.7 |
| 20260507102026 | 6 | 0 | 0.0 | 0.0 | 0.00 | 1.19 | 0.23 | 95 | 1006.7 |
| 20260507101541 | 6 | 0 | 0.0 | 0.0 | 0.00 | 1.19 | 0.23 | 95 | 1006.9 |
| 20260507101028 | 6 | 0 | 0.0 | 0.0 | 0.00 | 1.19 | 0.23 | 95 | 1006.7 |
| 20260507100525 | 6 | 0 | 0.0 | 0.0 | 0.00 | 1.19 | 0.23 | 95 | 1007.1 |
| 20260507100049 | 6 | 0 | 0.0 | 0.0 | 0.00 | 1.19 | 0.23 | 95 | 1006.9 |
| 20260507095525 | 6 | 0 | 0.0 | 0.0 | 0.00 | 1.19 | 0.23 | 95 | 1006.6 |
| 20260507095025 | 6 | 0 | 0.0 | 0.0 | 0.00 | 1.19 | 0.23 | 95 | 1006.2 |
| 20260507094537 | 6 | 0 | 0.0 | 0.0 | 0.00 | 1.19 | 0.23 | 94 | 1006.2 |
| 20260507094025 | 6 | 0 | 0.0 | 0.0 | 0.00 | 1.19 | 0.23 | 94 | 1006.3 |
| 20260507093527 | 6 | 0 | 0.0 | 0.0 | 0.00 | 1.19 | 0.23 | 94 | 1006.1 |
| 20260507093035 | 6 | 0 | 0.0 | 0.0 | 0.00 | 1.19 | 0.23 | 94 | 1005.9 |
| 20260507092528 | 6 | 0 | 0.0 | 0.0 | 0.00 | 1.19 | 0.23 | 94 | 1006.0 |
| 20260507092025 | 6 | 0 | 0.0 | 0.0 | 0.00 | 1.19 | 0.23 | 94 | 1006.0 |
| 20260507091541 | 7 | 0 | 0.0 | 0.0 | 0.00 | 1.19 | 0.23 | 94 | 1006.1 |
| 20260507091026 | 7 | 0 | 0.0 | 0.0 | 0.00 | 1.19 | 0.23 | 94 | 1006.5 |
| 20260507090525 | 7 | 0 | 0.0 | 0.0 | 0.00 | 1.19 | 0.23 | 94 | 1006.4 |
| 20260507090039 | 7 | 0 | 0.0 | 0.0 | 0.00 | 1.19 | 0.23 | 94 | 1006.3 |
| 20260507085525 | 7 | 0 | 0.0 | 0.0 | 0.00 | 1.19 | 0.23 | 94 | 1006.1 |
| 20260507085027 | 7 | 0 | 0.0 | 0.0 | 0.00 | 1.19 | 0.23 | 94 | 1006.4 |
| 20260507084545 | 7 | 0 | 0.0 | 0.0 | 0.00 | 1.19 | 0.23 | 94 | 1006.6 |
| 20260507084026 | 7 | 0 | 0.0 | 0.0 | 0.00 | 1.19 | 0.23 | 94 | 1006.2 |
| 20260507083525 | 7 | 0 | 0.0 | 1.6 | 0.00 | 1.19 | 0.23 | 94 | 1006.2 |
| 20260507083051 | 7 | 0 | 0.0 | 1.6 | 0.00 | 1.19 | 0.23 | 94 | 1006.3 |
| 20260507082526 | 7 | 0 | 0.0 | 1.6 | 0.00 | 1.19 | 0.23 | 94 | 1006.1 |
| 20260507082025 | 7 | 0 | 0.0 | 1.6 | 0.00 | 1.19 | 0.23 | 94 | 1006.4 |
| 20260507081537 | 7 | 0 | 0.0 | 1.6 | 0.00 | 1.19 | 0.23 | 94 | 1006.2 |
| 20260507081027 | 7 | 0 | 0.0 | 0.0 | 0.00 | 1.19 | 0.23 | 94 | 1006.0 |
| 20260507080527 | 7 | 0 | 0.0 | 0.0 | 0.00 | 1.19 | 0.23 | 94 | 1006.0 |
| 20260507080050 | 7 | 0 | 0.0 | 6.4 | 0.00 | 1.19 | 0.23 | 94 | 1005.9 |
| 20260507075528 | 7 | 0 | 0.0 | 6.4 | 0.00 | 1.19 | 0.23 | 93 | 1006.1 |
| 20260507075026 | 7 | 0 | 0.0 | 6.4 | 0.00 | 1.19 | 0.23 | 94 | 1005.7 |
| 20260507074541 | 8 | 0 | 0.0 | 6.4 | 0.00 | 1.19 | 0.23 | 94 | 1006.0 |
| 20260507074025 | 8 | 0 | 0.0 | 6.4 | 0.00 | 1.19 | 0.23 | 95 | 1005.8 |
| 20260507073529 | 8 | 0 | 0.0 | 1.6 | 0.00 | 1.19 | 0.23 | 95 | 1005.8 |
| 20260507073049 | 8 | 0 | 0.0 | 1.6 | 0.00 | 1.19 | 0.23 | 95 | 1006.0 |
| 20260507072525 | 8 | 0 | 0.0 | 0.0 | 0.00 | 1.19 | 0.23 | 95 | 1005.8 |
| 20260507072025 | 8 | 0 | 0.0 | 0.0 | 0.00 | 1.19 | 0.23 | 95 | 1005.9 |
| 20260507071537 | 8 | 0 | 0.0 | 0.0 | 0.00 | 1.19 | 0.23 | 94 | 1005.9 |
| 20260507071025 | 8 | 0 | 0.0 | 0.0 | 0.00 | 1.19 | 0.23 | 95 | 1005.6 |
| 20260507070527 | 8 | 0 | 0.0 | 0.0 | 0.00 | 1.19 | 0.23 | 95 | 1005.6 |
| 20260507070043 | 8 | 0 | 0.0 | 0.0 | 0.00 | 1.19 | 0.23 | 95 | 1005.5 |
| 20260507065525 | 8 | 0 | 0.0 | 0.0 | 0.00 | 1.19 | 0.23 | 95 | 1005.4 |
| 20260507065025 | 8 | 0 | 0.0 | 0.0 | 0.00 | 1.19 | 0.23 | 95 | 1005.4 |
| 20260507064541 | 8 | 0 | 0.0 | 0.0 | 0.00 | 1.19 | 0.23 | 94 | 1005.5 |
| 20260507064026 | 8 | 0 | 0.0 | 0.0 | 0.00 | 1.19 | 0.23 | 94 | 1005.4 |
| 20260507063529 | 8 | 0 | 0.0 | 0.0 | 0.00 | 1.19 | 0.23 | 94 | 1005.3 |
| 20260507063046 | 9 | 0 | 0.0 | 0.0 | 0.00 | 1.19 | 0.23 | 94 | 1005.1 |
| 20260507062525 | 9 | 0 | 0.0 | 0.0 | 0.00 | 1.19 | 0.23 | 94 | 1005.1 |
| 20260507062025 | 9 | 0 | 0.0 | 0.0 | 0.00 | 1.19 | 0.23 | 95 | 1004.9 |
| 20260507061539 | 9 | 0 | 0.0 | 0.0 | 0.03 | 1.19 | 0.23 | 95 | 1005.0 |
| 20260507061028 | 9 | 0 | 0.0 | 0.0 | 0.03 | 1.19 | 0.23 | 95 | 1005.1 |
| 20260507060527 | 9 | 0 | 0.0 | 0.0 | 0.03 | 1.19 | 0.23 | 95 | 1005.2 |
| 20260507060036 | 9 | 0 | 0.0 | 0.0 | 0.03 | 1.19 | 0.23 | 94 | 1005.2 |
| 20260507055525 | 9 | 0 | 0.0 | 0.0 | 0.03 | 1.19 | 0.23 | 94 | 1005.1 |
| 20260507055026 | 9 | 0 | 0.0 | 0.0 | 0.03 | 1.19 | 0.23 | 94 | 1005.0 |
| 20260507054540 | 9 | 0 | 0.0 | 0.0 | 0.03 | 1.19 | 0.23 | 94 | 1005.0 |
| 20260507054025 | 9 | 0 | 0.0 | 0.0 | 0.03 | 1.19 | 0.23 | 94 | 1004.9 |
| 20260507053526 | 9 | 0 | 0.0 | 6.4 | 0.03 | 1.19 | 0.23 | 94 | 1004.9 |
| 20260507053037 | 10 | 0 | 0.0 | 8.0 | 0.05 | 1.19 | 0.23 | 94 | 1005.0 |
| 20260507052525 | 10 | 359 | 0.0 | 8.0 | 0.08 | 1.19 | 0.23 | 94 | 1004.9 |
| 20260507052026 | 10 | 301 | 0.0 | 3.2 | 0.13 | 1.19 | 0.23 | 95 | 1004.9 |
| 20260507051542 | 10 | 0 | 0.0 | 0.0 | 0.18 | 1.17 | 0.20 | 95 | 1005.0 |
| 20260507051025 | 10 | 0 | 0.0 | 11.3 | 0.20 | 1.17 | 0.20 | 95 | 1004.9 |
| 20260507050528 | 10 | 0 | 0.0 | 11.3 | 0.20 | 1.17 | 0.20 | 94 | 1004.9 |
| 20260507050040 | 10 | 0 | 1.6 | 11.3 | 0.20 | 1.17 | 0.20 | 94 | 1004.8 |
| 20260507045525 | 10 | 0 | 0.0 | 8.0 | 0.20 | 1.17 | 0.20 | 95 | 1004.9 |
| 20260507045026 | 11 | 0 | 0.0 | 9.7 | 0.20 | 1.17 | 0.20 | 95 | 1004.9 |
| 20260507044540 | 11 | 264 | 0.0 | 9.7 | 0.23 | 1.17 | 0.20 | 95 | 1004.9 |
| 20260507044025 | 11 | 0 | 0.0 | 8.0 | 0.23 | 1.17 | 0.20 | 95 | 1004.8 |
| 20260507043525 | 11 | 0 | 0.0 | 11.3 | 0.25 | 1.17 | 0.20 | 95 | 1004.8 |
| 20260507043038 | 11 | 0 | 0.0 | 12.9 | 0.23 | 1.14 | 0.18 | 95 | 1004.8 |
| 20260507042524 | 11 | 315 | 1.6 | 12.9 | 0.20 | 1.12 | 0.15 | 95 | 1004.8 |
| 20260507042025 | 11 | 305 | 6.4 | 12.9 | 0.13 | 1.04 | 0.08 | 95 | 1005.0 |
| 20260507041547 | 11 | 301 | 3.2 | 12.9 | 0.08 | 0.99 | 0.03 | 95 | 1005.2 |
| 20260507041025 | 11 | 0 | 0.0 | 3.2 | 0.05 | 0.97 | 0.00 | 95 | 1004.8 |
| 20260507040525 | 11 | 0 | 0.0 | 0.0 | 0.05 | 0.97 | 0.00 | 95 | 1004.4 |
| 20260507040041 | 11 | 0 | 0.0 | 0.0 | 0.05 | 0.97 | 0.00 | 95 | 1004.3 |
| 20260507035525 | 11 | 0 | 0.0 | 0.0 | 0.05 | 0.97 | 0.97 | 95 | 1004.2 |
| 20260507035026 | 11 | 0 | 0.0 | 0.0 | 0.05 | 0.97 | 0.97 | 95 | 1004.3 |
| 20260507034539 | 11 | 0 | 0.0 | 0.0 | 0.03 | 0.94 | 0.94 | 95 | 1004.2 |
| 20260507034025 | 11 | 0 | 0.0 | 6.4 | 0.03 | 0.94 | 0.94 | 95 | 1004.2 |
| 20260507033525 | 11 | 0 | 0.0 | 6.4 | 0.00 | 0.91 | 0.91 | 95 | 1004.3 |
| 20260507033039 | 11 | 0 | 0.0 | 0.0 | 0.00 | 0.91 | 0.91 | 95 | 1004.3 |
| 20260507032528 | 11 | 0 | 0.0 | 0.0 | 0.00 | 0.91 | 0.91 | 95 | 1003.8 |
| 20260507032025 | 11 | 0 | 0.0 | 0.0 | 0.00 | 0.91 | 0.91 | 95 | 1003.9 |
| 20260507031537 | 11 | 0 | 0.0 | 0.0 | 0.00 | 0.91 | 0.91 | 95 | 1003.8 |
| 20260507031028 | 11 | 0 | 0.0 | 0.0 | 0.00 | 0.91 | 0.91 | 95 | 1003.9 |
| 20260507030525 | 11 | 0 | 0.0 | 4.8 | 0.00 | 0.91 | 0.91 | 95 | 1003.7 |
| 20260507030036 | 11 | 0 | 0.0 | 4.8 | 0.00 | 0.91 | 0.91 | 95 | 1003.7 |
| 20260507025525 | 11 | 0 | 0.0 | 4.8 | 0.00 | 0.91 | 0.91 | 95 | 1003.8 |
| 20260507025025 | 11 | 0 | 0.0 | 4.8 | 0.00 | 0.91 | 0.91 | 95 | 1003.9 |
| 20260507024544 | 11 | 0 | 0.0 | 4.8 | 0.00 | 0.91 | 0.91 | 95 | 1003.9 |
| 20260507024024 | 11 | 0 | 0.0 | 6.4 | 0.03 | 0.91 | 0.91 | 95 | 1004.0 |
| 20260507023536 | 11 | 0 | 0.0 | 6.4 | 0.03 | 0.91 | 0.91 | 95 | 1004.0 |
| 20260507023042 | 11 | 0 | 0.0 | 4.8 | 0.05 | 0.91 | 0.91 | 95 | 1004.0 |
| 20260507022529 | 11 | 0 | 0.0 | 1.6 | 0.05 | 0.91 | 0.91 | 95 | 1004.0 |
| 20260507022026 | 11 | 0 | 0.0 | 4.8 | 0.05 | 0.91 | 0.91 | 95 | 1004.2 |
| 20260507021537 | 11 | 0 | 0.0 | 4.8 | 0.05 | 0.91 | 0.91 | 95 | 1004.2 |
| 20260507021028 | 11 | 0 | 0.0 | 6.4 | 0.05 | 0.91 | 0.91 | 94 | 1004.3 |